Regional Weather Roundup
Issued by NWS

Home | Current Version | Previous Version | Text Only | Print | Product List | Glossary On
Versions: 1 2 3 4 5 6 7 8 9 10 11 12 13 14 15 16 17 18 19 20 21 22 23 24 25 26 27 28 29 30 31 32 33 34 35 36 37 38 39 40 41 42 43 44 45 46 47 48 49 50
000
ASUS43 KMPX 040401
RWRMN
WEATHER ROUNDUP FOR MINNESOTA
NATIONAL WEATHER SERVICE TWIN CITIES/CHANHASSEN MN
1100 PM CDT FRI JUL 03 2015


NOTE: "FAIR" INDICATES FEW OR NO CLOUDS BELOW 12,000 FEET WITH NO
SIGNIFICANT WEATHER AND/OR OBSTRUCTIONS TO VISIBILITY. N/A MEANS
CURRENT SKY AND/OR WEATHER CONDITIONS ARE NOT AVAILABLE.

MNZ060>063-068>070-040500-
   Twin Cities Metro

CITY           SKY/WX    TMP DP  RH WIND       PRES   REMARKS
TWIN CITIES    MOCLDY    73  59  61 SW6       29.91S
ST PAUL        CLEAR     70  61  73 CALM      29.91R
CRYSTAL        CLEAR     70  60  70 CALM      29.90R
BLAINE         CLEAR     73  61  64 SW5       29.91S
LAKEVILLE      CLEAR     63  59  88 CALM      29.92S
EDEN PRAIRIE   CLEAR     69  60  73 CALM      29.91R
SOUTH ST PAUL  CLEAR     70  59  69 CALM      29.91S
LAKE ELMO      FAIR      66  61  82 CALM      29.92S
$$
MNZ001>005-007-008-013>017-022>024-027-028-040500-
   Northwest Minnesota

CITY           SKY/WX    TMP DP  RH WIND       PRES   REMARKS
BEMIDJI        CLEAR     60  57  89 CALM      29.93S
HALLOCK        CLEAR     64  61  88 E5        29.89S FOG
ROSEAU         CLEAR     64  59  82 CALM      29.91S HAZE
WARROAD        CLEAR     66  61  82 CALM      29.92R
THIEF RVR FALL CLEAR     64  61  88 CALM      29.92S
CROOKSTON      CLEAR     66  63  88 CALM      29.91S HAZE
FOSSTON        CLEAR     61  54  77 CALM      29.94R HAZE
DETROIT LAKES  CLEAR     68  64  88 CALM      29.95R FOG
MOORHEAD       CLEAR     66  61  82 CALM      29.91S HAZE
PARK RAPIDS    CLOUDY    63  59  87 CALM      29.94R FOG
MAHNOMEN       CLOUDY    67  63  86 CALM      29.92R
$$
MNZ006-009>011-018-025>026-040500-
   North Central Minnesota

CITY           SKY/WX    TMP DP  RH WIND       PRES   REMARKS
BAUDETTE       CLEAR     60  57  89 CALM      29.91S
FLAG ISLAND    CLEAR     72  57  60 SW5       29.90R
INTL FALLS     CLEAR     59  54  83 SE5       29.92R
WASKISH        CLEAR     61  57  88 CALM      29.92S FOG
BIG FORK       CLEAR     57  55  94 CALM      29.93S FOG
LONGVILLE      CLEAR     61  59  94 CALM      29.93R FOG
GRAND RAPIDS   CLEAR     59  54  82 CALM      29.93R
CRANE LAKE     CLEAR     55  54  94 CALM      29.95R
ORR            CLEAR     61  54  77 CALM      29.92R
COOK           CLEAR     63  55  77 CALM      29.94R
WALKER         FAIR      61  60  96 CALM      29.93R FOG
$$
MNZ012-019>021-037-040500-
   Northeast Minnesota

CITY           SKY/WX    TMP DP  RH WIND       PRES   REMARKS
DULUTH         CLEAR     66  55  67 N5        29.92R
ELY            CLEAR     63  54  72 CALM      29.94R
HIBBING        CLEAR     57  55  93 CALM      29.92R
DULUTH HARBOR  CLEAR     70  59  68 N3        29.89R
TWO HARBORS    CLEAR     66  59  77 NW3       29.89R
SILVER BAY     CLEAR     63  55  77 NW3       29.90R
GRAND MARAIS     N/A     68  55  63 VRB7      29.88R
G MARAIS ARPRT PTCLDY    61  52  72 N6        29.95R
$$
MNZ029>031-032-039>041-046>048-054>057-064-040500-
   West Central Minnesota

CITY           SKY/WX    TMP DP  RH WIND       PRES   REMARKS
FERGUS FALLS   CLEAR     70  64  83 CALM      29.91S HAZE
WHEATON        PTCLDY    64  61  88 CALM      29.93S FOG
MORRIS         PTCLDY    70  64  83 CALM      29.92R FOG
ALEXANDRIA     CLOUDY    67  65  93 CALM      29.95R FOG
ELBOW LAKE     FAIR      68  64  86 CALM      29.92S FOG
WADENA         CLEAR     63  61  94 CALM      29.93R FOG
GLENWOOD       CLEAR     70  63  78 NW3       29.94S HAZE
APPLETON       PTCLDY    70  64  83 CALM      29.92R FOG
BENSON         FOG       64  63  94 CALM      29.92S VSB 1/4
ORTONVILLE     PTCLDY    72  64  78 CALM      29.92S HAZE
MADISON        CLEAR     70  64  83 CALM      29.92S FOG
WILLMAR        FAIR      70  66  88 CALM      29.94S
$$
MNZ033>034-036-042>043-049>051-058-059-040500-
   Central Minnesota

CITY           SKY/WX    TMP DP  RH WIND       PRES   REMARKS
ST CLOUD       CLOUDY    67  64  90 CALM      29.91R FOG
SAUK CENTRE    CLOUDY    65  64  96 CALM      29.93R FOG
PAYNESVILLE    CLEAR     62  61  97 CALM      29.93R FOG
AITKIN         CLEAR     61  55  82 CALM      29.91S HAZE
PINE RIVER     CLEAR     61  59  94 CALM      29.96S FOG
BRAINERD       CLOUDY    62  60  93 CALM      29.93R FOG
STAPLES        CLEAR     64  61  88 CALM      29.93R FOG
LONG PRAIRIE   CLOUDY    63  61  94 CALM      29.93S FOG
LITTLE FALLS     N/A     63  59  88 CALM      29.92R FOG
LITCHFIELD     CLEAR     70  66  88 CALM      29.93S
BUFFALO        CLEAR     69  62  77 CALM      29.93R
MAPLE LAKE     CLEAR     65  64  94 CALM      29.93R FOG
$$
MNZ037-044-045-052-053-040500-
   East Central Minnesota

CITY           SKY/WX    TMP DP  RH WIND       PRES   REMARKS
PRINCETON      CLEAR     64  63  94 CALM      29.91S FOG
MORA           CLEAR     61  61 100 CALM      29.93R FOG
CAMBRIDGE      CLEAR     68  57  68 CALM      29.90R
RUSH CITY      CLEAR     64  62  94 CALM      29.91R
MOOSE LAKE     PTCLDY    61  59  94 NE3       29.89S FOG
HINCKLEY       FAIR      64  63  94 CALM      29.91R FOG
CLOQUET        CLEAR     63  55  77 NW5       29.92R
MCGREGOR       CLEAR     63  59  88 CALM      29.92S
$$
MNZ071>073-080-081-089-090-097-098-040500-
   Southwest Minnesota

CITY           SKY/WX    TMP DP  RH WIND       PRES   REMARKS
MONTEVIDEO     CLEAR     70  64  83 CALM      29.93R
GRANITE FALLS  CLEAR     72  64  77 CALM      29.94R
CANBY          PTCLDY    70  65  84 W5        29.94R
MARSHALL       MOCLDY    73  63  68 SW10      29.92R
REDWOOD FALLS  CLEAR     71  62  73 S3        29.92R
OLIVIA         PTCLDY    68  61  77 CALM      29.92S
PIPESTONE      CLEAR     66  63  88 SW3       29.97R
WINDOM         CLEAR     66  61  82 SW6       29.96R
WORTHINGTON    CLEAR     64  57  77 SW7       29.97R
JACKSON        CLEAR     68  57  68 SW6       29.97R
TRACY          PTCLDY    71  66  84 SW6       29.95R
SLAYTON        PTCLDY    67  64  89 CALM      29.97S
$$
MNZ065>067-074>077-082>085-091>093-040500-
   South Central Minnesota

CITY           SKY/WX    TMP DP  RH WIND       PRES   REMARKS
MANKATO        CLEAR     70  57  64 S7        29.94R
NEW ULM        PTCLDY    66  61  82 S3        29.93S
ST JAMES       CLEAR     68  63  83 CALM      29.95R
FAIRMONT       CLEAR     66  55  68 CALM      29.94S
GLENCOE        CLEAR     69  63  80 SW3       29.92R
FARIBAULT      CLEAR     63  57  82 CALM      29.94R
OWATONNA       CLEAR     63  57  82 SE3       29.95R
WASECA         CLEAR     63  57  82 CALM      29.96R
ALBERT LEA     CLEAR     66  61  82 CALM      29.95S
$$
MNZ078>079-086>088-094>096-040500-
   Southeast Minnesota

CITY           SKY/WX    TMP DP  RH WIND       PRES   REMARKS
ROCHESTER      CLEAR     65  55  70 W6        29.95S
RED WING       CLEAR     63  61  94 CALM      29.91S
DODGE CENTER   CLEAR     63  57  82 CALM      29.95S
WINONA         CLEAR     63  59  88 CALM      29.93S
AUSTIN         FAIR      64  57  77 CALM      29.95S
PRESTON        CLEAR     64  55  70 SW3       29.96R
$$
ABBREVIATIONS USED IN REMARKS
   TC - TEMPERATURES IN CELSIUS
  WCI - WIND CHILL INDEX
   HX - HEAT INDEX
  VSB - VISIBILITY
$$



USA.gov is the U.S. government's official web portal to all federal, state and local government web resources and services.